Location: Arbon
(43.0005°N, 0.7472°E)
Time: 21:19:57
(UTC+00:00)

Altair - Pass Details

Date: 04 December 2020
Orbit: 1501 x 1682 km, 47.2° (Epoch: 26 January)

Event Time Altitude Azimuth Distance (km) Brightness Sun altitude
Rises 22:14:21 0° 280° (W) 4,699 10.4 -61.7°
Enters shadow 22:17:21 10° 283° (WNW) 3,735 9.8 -62.2°
Reaches altitude 10° 22:17:28 10° 283° (WNW) 3,697 - -62.2°
Maximum altitude 22:26:44 70° 7° (N) 1,587 - -63.4°
Drops below altitude 10° 22:35:54 10° 91° (E) 3,654 - -64.6°
Sets 22:38:57 0° 94° (E) 4,642 - -64.9°
